Radiation Dose at Monitoring Post of Fukushima Daini Nuclear Power Station
Date,Time,MP-1(microSv/h),MP-2(microSv/h),MP-3(microSv/h),MP-4(microSv/h),MP-5(microSv/h),MP-6(microSv/h),MP-7(microSv/h),Wind Direction,Wind Velocity(m/s),Rain
2024/05/10,00:00,0.143,0.127,0.203,0.189,0.201,0.113,0.074,northwest,7.2,No
2024/05/10,00:10,0.143,0.127,0.202,0.188,0.202,0.113,0.073,northwest,6.3,No
2024/05/10,00:20,0.143,0.127,0.202,0.189,0.201,0.113,0.073,northwest,6.9,No
2024/05/10,00:30,0.143,0.126,0.202,0.189,0.201,0.113,0.073,northwest,6.1,No
2024/05/10,00:40,0.142,0.125,0.203,0.188,0.203,0.113,0.074,northwest,4.9,No
2024/05/10,00:50,0.143,0.127,0.202,0.189,0.201,0.113,0.073,west-northwest,4.3,No
2024/05/10,01:00,0.143,0.127,0.202,0.188,0.201,0.113,0.073,northwest,3.2,No
2024/05/10,01:10,0.143,0.126,0.202,0.189,0.202,0.113,0.074,-,CALM,No
2024/05/10,01:20,0.143,0.126,0.204,0.189,0.203,0.114,0.074,-,CALM,No
2024/05/10,01:30,0.143,0.127,0.204,0.188,0.202,0.113,0.074,west-northwest,2.2,No
2024/05/10,01:40,0.143,0.126,0.203,0.187,0.202,0.113,0.074,west-northwest,2.9,No
2024/05/10,01:50,0.143,0.126,0.202,0.190,0.202,0.113,0.074,west,2.8,No
2024/05/10,02:00,0.143,0.127,0.203,0.188,0.202,0.112,0.073,west,3.7,No
2024/05/10,02:10,0.143,0.126,0.203,0.189,0.203,0.113,0.073,west,7.2,No
2024/05/10,02:20,0.143,0.127,0.202,0.188,0.203,0.113,0.073,west,6.5,No
2024/05/10,02:30,0.143,0.127,0.202,0.188,0.202,0.112,0.074,west,5.6,No
2024/05/10,02:40,0.144,0.127,0.203,0.188,0.202,0.112,0.074,west,5.7,No
2024/05/10,02:50,0.144,0.126,0.202,0.189,0.202,0.113,0.074,west,4.5,No
2024/05/10,03:00,0.143,0.126,0.203,0.188,0.201,0.113,0.073,west,2.8,No
2024/05/10,03:10,0.143,0.126,0.203,0.189,0.202,0.113,0.074,west,1.9,No
2024/05/10,03:20,0.144,0.126,0.202,0.189,0.201,0.113,0.074,west,1.9,No
2024/05/10,03:30,0.143,0.126,0.202,0.188,0.202,0.113,0.073,west-southwest,2.4,No
2024/05/10,03:40,0.143,0.127,0.203,0.189,0.201,0.113,0.074,west,2.6,No
2024/05/10,03:50,0.144,0.126,0.202,0.188,0.202,0.112,0.073,west-northwest,2.1,No
2024/05/10,04:00,0.143,0.126,0.203,0.190,0.202,0.113,0.073,west-northwest,1.0,No
2024/05/10,04:10,0.142,0.126,0.203,0.189,0.203,0.113,0.074,west-northwest,1.4,No
2024/05/10,04:20,0.144,0.127,0.203,0.189,0.202,0.112,0.073,west,1.9,No
2024/05/10,04:30,0.144,0.127,0.204,0.187,0.202,0.113,0.074,west-northwest,2.0,No
2024/05/10,04:40,0.143,0.127,0.203,0.188,0.202,0.114,0.074,west-northwest,2.4,No
2024/05/10,04:50,0.143,0.126,0.204,0.188,0.202,0.113,0.074,west-northwest,1.4,No
2024/05/10,05:00,0.143,0.127,0.202,0.189,0.202,0.114,0.073,west,2.4,No
2024/05/10,05:10,0.142,0.127,0.203,0.187,0.202,0.113,0.074,west-southwest,1.3,No
2024/05/10,05:20,0.143,0.126,0.203,0.189,0.202,0.112,0.074,west-northwest,1.5,No
2024/05/10,05:30,0.143,0.127,0.203,0.188,0.201,0.113,0.073,west,1.0,No
2024/05/10,05:40,0.143,0.126,0.204,0.189,0.202,0.112,0.073,west,1.6,No
2024/05/10,05:50,0.143,0.126,0.203,0.189,0.201,0.113,0.074,west-northwest,2.1,No
2024/05/10,06:00,0.142,0.127,0.203,0.188,0.202,0.113,0.073,northwest,1.8,No
2024/05/10,06:10,0.144,0.126,0.203,0.188,0.202,0.113,0.074,north,1.0,No
2024/05/10,06:20,0.143,0.126,0.203,0.188,0.202,0.113,0.074,north,1.8,No
2024/05/10,06:30,0.143,0.127,0.202,0.188,0.202,0.113,0.073,north,1.6,No
2024/05/10,06:40,0.144,0.126,0.202,0.189,0.201,0.113,0.073,northeast,1.4,No
2024/05/10,06:50,0.143,0.127,0.203,0.188,0.203,0.113,0.073,north-northeast,0.8,No
2024/05/10,07:00,0.144,0.126,0.202,0.187,0.202,0.113,0.074,north-northeast,1.3,No
2024/05/10,07:10,0.143,0.126,0.203,0.188,0.204,0.113,0.073,northeast,1.5,No
2024/05/10,07:20,0.142,0.126,0.202,0.188,0.204,0.113,0.074,-,CALM,No
2024/05/10,07:30,0.143,0.126,0.202,0.187,0.203,0.113,0.074,-,CALM,No
2024/05/10,07:40,0.143,0.126,0.201,0.189,0.203,0.112,0.074,-,CALM,No
2024/05/10,07:50,0.141,0.125,0.202,0.187,0.202,0.111,0.074,-,CALM,No
2024/05/10,08:00,0.144,0.126,0.200,0.188,0.202,0.112,0.074,south-southwest,0.7,No
2024/05/10,08:10,0.142,0.125,0.201,0.188,0.203,0.112,0.073,south,0.7,No
2024/05/10,08:20,0.142,0.126,0.202,0.187,0.200,0.113,0.073,southeast,2.3,No
2024/05/10,08:30,0.144,0.126,0.202,0.190,0.203,0.112,0.074,east-southeast,3.0,No
2024/05/10,08:40,0.142,0.127,0.201,0.187,0.202,0.114,0.073,southeast,3.0,No
2024/05/10,08:50,0.143,0.125,0.202,0.186,0.203,0.112,0.073,south-southeast,3.6,No
2024/05/10,09:00,0.144,0.127,0.202,0.190,0.202,0.113,0.073,southeast,3.0,No
2024/05/10,09:10,0.143,0.126,0.201,0.188,0.201,0.113,0.074,south-southeast,3.4,No
2024/05/10,09:20,0.142,0.126,0.203,0.188,0.203,0.113,0.074,southeast,3.4,No
2024/05/10,09:30,0.144,0.126,0.204,0.190,0.202,0.113,0.075,south-southeast,3.5,No
2024/05/10,09:40,0.142,0.126,0.200,0.189,0.200,0.113,0.074,south-southeast,3.4,No
2024/05/10,09:50,0.141,0.126,0.203,0.189,0.203,0.114,0.073,southeast,3.9,No
2024/05/10,10:00,0.143,0.126,0.203,0.189,0.202,0.113,0.074,southeast,3.5,No
2024/05/10,10:10,0.143,0.126,0.201,0.189,0.201,0.113,0.073,southeast,3.9,No
2024/05/10,10:20,0.141,0.127,0.203,0.188,0.204,0.114,0.073,south-southeast,3.8,No
2024/05/10,10:30,0.141,0.127,0.204,0.187,0.202,0.113,0.074,south-southeast,3.2,No
2024/05/10,10:40,0.144,0.125,0.203,0.189,0.202,0.113,0.074,south-southeast,4.3,No
2024/05/10,10:50,0.144,0.126,0.203,0.189,0.203,0.113,0.074,south-southeast,4.6,No
2024/05/10,11:00,0.142,0.127,0.204,0.188,0.204,0.114,0.073,south-southeast,6.5,No
2024/05/10,11:10,0.143,0.126,0.204,0.189,0.202,0.113,0.073,south-southeast,7.6,No
2024/05/10,11:20,0.145,0.127,0.201,0.191,0.201,0.113,0.074,south-southeast,8.4,No
2024/05/10,11:30,0.144,0.126,0.201,0.188,0.204,0.114,0.073,south-southeast,8.2,No
2024/05/10,11:40,0.141,0.126,0.205,0.188,0.202,0.113,0.074,south-southeast,7.9,No
2024/05/10,11:50,0.141,0.128,0.204,0.191,0.200,0.114,0.075,south-southeast,6.1,No
2024/05/10,12:00,0.145,0.126,0.202,0.188,0.202,0.114,0.073,south-southeast,7.1,No
2024/05/10,12:10,0.144,0.127,0.201,0.188,0.204,0.114,0.075,south-southeast,8.8,No
2024/05/10,12:20,0.142,0.127,0.203,0.190,0.203,0.114,0.074,south,7.8,No
2024/05/10,12:30,0.143,0.126,0.204,0.191,0.201,0.113,0.074,south-southeast,8.3,No
2024/05/10,12:40,0.145,0.127,0.203,0.189,0.203,0.113,0.074,south-southeast,8.1,No
2024/05/10,12:50,0.143,0.127,0.202,0.189,0.205,0.114,0.075,south-southeast,8.3,No
2024/05/10,13:00,0.143,0.127,0.203,0.192,0.203,0.113,0.073,south-southeast,8.1,No
2024/05/10,13:10,0.143,0.126,0.206,0.190,0.202,0.113,0.074,south-southeast,8.6,No
2024/05/10,13:20,0.144,0.128,0.205,0.189,0.203,0.113,0.074,south,8.6,No
2024/05/10,13:30,0.145,0.127,0.203,0.189,0.205,0.114,0.074,south,9.8,No
2024/05/10,13:40,0.144,0.126,0.202,0.192,0.203,0.114,0.073,south,8.7,No
2024/05/10,13:50,0.142,0.128,0.202,0.191,0.201,0.113,0.075,south-southeast,8.5,No
2024/05/10,14:00,0.145,0.128,0.205,0.189,0.202,0.115,0.075,south-southeast,7.7,No
2024/05/10,14:10,0.145,0.126,0.204,0.190,0.206,0.113,0.074,south,9.5,No
2024/05/10,14:20,0.143,0.127,0.204,0.192,0.203,0.113,0.074,south-southeast,10.0,No
2024/05/10,14:30,0.143,0.127,0.202,0.191,0.203,0.114,0.075,south,7.4,No
2024/05/10,14:40,0.145,0.128,0.202,0.190,0.201,0.114,0.074,south-southeast,7.5,No
2024/05/10,14:50,0.145,0.126,0.206,0.190,0.205,0.115,0.074,south-southeast,9.3,No
2024/05/10,15:00,0.143,0.127,0.206,0.192,0.206,0.114,0.074,south-southeast,9.3,No
2024/05/10,15:10,0.143,0.128,0.205,0.191,0.204,0.114,0.074,south,7.1,No
2024/05/10,15:20,0.146,0.127,0.203,0.190,0.202,0.114,0.074,south,7.6,No
2024/05/10,15:30,0.145,0.127,0.204,0.189,0.201,0.114,0.074,south-southwest,8.1,No
2024/05/10,15:40,0.143,0.127,0.207,0.192,0.201,0.113,0.074,south,8.2,No
2024/05/10,15:50,0.143,0.127,0.205,0.190,0.202,0.113,0.074,south,8.6,No
2024/05/10,16:00,0.145,0.127,0.206,0.192,0.201,0.115,0.074,south,8.5,No
2024/05/10,16:10,0.145,0.128,0.206,0.192,0.204,0.114,0.074,south-southwest,8.1,No
2024/05/10,16:20,0.144,0.127,0.205,0.190,0.205,0.114,0.074,south,7.9,No
2024/05/10,16:30,0.143,0.127,0.207,0.193,0.205,0.114,0.074,south,7.3,No
2024/05/10,16:40,0.145,0.128,0.206,0.191,0.202,0.115,0.074,south-southwest,7.5,No
2024/05/10,16:50,0.145,0.127,0.207,0.192,0.202,0.114,0.074,south,6.7,No
2024/05/10,17:00,0.144,0.128,0.205,0.192,0.204,0.114,0.074,south,8.3,No
2024/05/10,17:10,0.145,0.127,0.206,0.192,0.206,0.115,0.074,south-southwest,7.6,No
2024/05/10,17:20,0.145,0.129,0.207,0.193,0.203,0.114,0.074,south-southwest,7.2,No
2024/05/10,17:30,0.145,0.128,0.206,0.191,0.206,0.115,0.074,south,7.0,No
2024/05/10,17:40,0.145,0.128,0.206,0.192,0.204,0.114,0.074,south,6.2,No
2024/05/10,17:50,0.144,0.128,0.205,0.191,0.203,0.114,0.074,south-southwest,6.9,No
2024/05/10,18:00,0.144,0.127,0.207,0.192,0.206,0.115,0.075,south-southwest,6.9,No
2024/05/10,18:10,0.145,0.127,0.205,0.191,0.203,0.114,0.074,south,6.9,No
2024/05/10,18:20,0.145,0.128,0.206,0.191,0.206,0.115,0.074,south-southwest,8.5,No
2024/05/10,18:30,0.144,0.127,0.206,0.192,0.204,0.114,0.074,south-southwest,7.1,No
2024/05/10,18:40,0.144,0.128,0.206,0.192,0.205,0.114,0.074,south-southwest,7.2,No
2024/05/10,18:50,0.145,0.128,0.207,0.191,0.204,0.115,0.074,south-southwest,7.1,No
2024/05/10,19:00,0.144,0.127,0.206,0.193,0.204,0.114,0.074,south-southwest,7.5,No
2024/05/10,19:10,0.145,0.127,0.207,0.191,0.204,0.114,0.075,south-southwest,6.4,No
2024/05/10,19:20,0.145,0.127,0.206,0.193,0.205,0.114,0.074,south-southwest,7.0,No
2024/05/10,19:30,0.144,0.128,0.206,0.192,0.204,0.115,0.074,south-southwest,5.4,No
2024/05/10,19:40,0.145,0.128,0.206,0.194,0.205,0.114,0.073,south-southwest,4.8,No
2024/05/10,19:50,0.145,0.127,0.206,0.192,0.204,0.115,0.074,south,5.7,No
2024/05/10,20:00,0.145,0.127,0.206,0.193,0.205,0.114,0.074,south,5.0,No
2024/05/10,20:10,0.145,0.128,0.206,0.191,0.203,0.115,0.074,south,4.7,No
2024/05/10,20:20,0.145,0.128,0.207,0.193,0.206,0.114,0.074,south,5.4,No
2024/05/10,20:30,0.143,0.128,0.206,0.192,0.203,0.115,0.074,south,5.6,No
2024/05/10,20:40,0.144,0.127,0.208,0.192,0.205,0.115,0.075,south,5.6,No
2024/05/10,20:50,0.145,0.128,0.207,0.191,0.203,0.114,0.074,south,5.1,No
2024/05/10,21:00,0.145,0.128,0.206,0.192,0.205,0.114,0.074,south,4.6,No
2024/05/10,21:10,0.145,0.127,0.206,0.193,0.204,0.115,0.074,south-southwest,4.6,No
2024/05/10,21:20,0.145,0.128,0.206,0.192,0.205,0.115,0.074,south,6.0,No
2024/05/10,21:30,0.145,0.128,0.207,0.193,0.204,0.115,0.075,south,5.9,No
2024/05/10,21:40,0.145,0.127,0.206,0.191,0.205,0.114,0.075,south-southwest,5.5,No
2024/05/10,21:50,0.145,0.128,0.206,0.193,0.204,0.114,0.074,south-southwest,5.4,No
2024/05/10,22:00,0.144,0.128,0.206,0.191,0.204,0.114,0.075,south,6.0,No
2024/05/10,22:10,0.145,0.128,0.206,0.192,0.205,0.115,0.074,south,7.4,No
2024/05/10,22:20,0.145,0.129,0.207,0.192,0.205,0.114,0.074,south,7.1,No
2024/05/10,22:30,0.145,0.127,0.207,0.193,0.205,0.113,0.075,south,7.0,No
2024/05/10,22:40,0.144,0.128,0.206,0.193,0.204,0.115,0.074,south-southwest,7.5,No
2024/05/10,22:50,0.145,0.128,0.207,0.192,0.207,0.114,0.075,south-southwest,5.8,No
2024/05/10,23:00,0.145,0.128,0.207,0.193,0.204,0.114,0.075,south-southwest,4.1,No
2024/05/10,23:10,0.146,0.129,0.206,0.192,0.205,0.115,0.074,south-southwest,4.2,No
2024/05/10,23:20,0.146,0.128,0.207,0.193,0.204,0.115,0.075,south-southwest,4.1,No
2024/05/10,23:30,0.145,0.128,0.206,0.193,0.204,0.115,0.075,south-southwest,4.0,No
2024/05/10,23:40,0.146,0.128,0.207,0.192,0.203,0.114,0.075,south-southwest,3.6,No
2024/05/10,23:50,0.143,0.129,0.206,0.194,0.204,0.114,0.074,south-southwest,4.4,No
